TimeEEST,TemperatureF,Dew PointF,Humidity,Sea Level PressureIn,VisibilityMPH,Wind Direction,Wind SpeedMPH,Gust SpeedMPH,PrecipitationIn,Events,Conditions,WindDirDegrees,DateUTC
12:20 AM,78.8,55.4,44,29.71,-9999.0,Calm,Calm,-,N/A,,Clear,0,2013-08-16 21:20:00
12:50 AM,75.2,53.6,47,29.71,-9999.0,Calm,Calm,-,N/A,,Clear,0,2013-08-16 21:50:00
1:20 AM,75.2,53.6,47,29.68,-9999.0,Calm,Calm,-,N/A,,Clear,0,2013-08-16 22:20:00
1:50 AM,71.6,55.4,57,29.68,-9999.0,Calm,Calm,-,N/A,,Clear,0,2013-08-16 22:50:00
2:20 AM,69.8,55.4,60,29.68,-9999.0,Calm,Calm,-,N/A,,Clear,0,2013-08-16 23:20:00
2:50 AM,71.6,55.4,57,29.68,-9999.0,SSE,2.3,-,N/A,,Clear,160,2013-08-16 23:50:00
3:00 AM,71,55,48,29.53,6,SSE,2.3,,,,,160,2013-08-17 00:00:00
3:20 AM,73.4,53.6,50,29.68,-9999.0,SSE,5.8,-,N/A,,Clear,150,2013-08-17 00:20:00
3:50 AM,71.6,53.6,53,29.68,-9999.0,ESE,4.6,-,N/A,,Clear,120,2013-08-17 00:50:00
4:20 AM,69.8,53.6,56,29.68,-9999.0,Calm,Calm,-,N/A,,Clear,0,2013-08-17 01:20:00
4:50 AM,69.8,53.6,56,29.71,-9999.0,Calm,Calm,-,N/A,,Clear,0,2013-08-17 01:50:00
5:20 AM,68.0,51.8,56,29.71,-9999.0,Calm,Calm,-,N/A,,Clear,0,2013-08-17 02:20:00
5:50 AM,69.8,51.8,53,29.71,-9999.0,Calm,Calm,-,N/A,,Clear,0,2013-08-17 02:50:00
6:20 AM,66.2,51.8,60,29.71,-9999.0,Calm,Calm,-,N/A,,Clear,0,2013-08-17 03:20:00
6:50 AM,69.8,51.8,53,29.71,-9999.0,Calm,Calm,-,N/A,,Clear,0,2013-08-17 03:50:00
7:20 AM,75.2,53.6,47,29.71,-9999.0,Calm,Calm,-,N/A,,Clear,0,2013-08-17 04:20:00
7:50 AM,78.8,57.2,47,29.71,-9999.0,Calm,Calm,-,N/A,,Clear,0,2013-08-17 04:50:00
8:20 AM,84.2,55.4,37,29.71,-9999.0,Calm,Calm,-,N/A,,Clear,0,2013-08-17 05:20:00
8:50 AM,87.8,48.2,25,29.71,-9999.0,Variable,1.2,-,N/A,,Clear,0,2013-08-17 05:50:00
9:00 AM,88,48,16,29.56,6,WNW,1.2,,,,,290,2013-08-17 06:00:00
9:20 AM,89.6,46.4,22,29.71,-9999.0,NNW,5.8,-,N/A,,Clear,340,2013-08-17 06:20:00
9:50 AM,91.4,46.4,21,29.71,-9999.0,North,9.2,-,N/A,,Clear,360,2013-08-17 06:50:00
10:20 AM,93.2,46.4,20,29.71,-9999.0,North,8.1,-,N/A,,Clear,360,2013-08-17 07:20:00
10:50 AM,93.2,42.8,17,29.71,-9999.0,North,5.8,-,N/A,,Clear,360,2013-08-17 07:50:00
11:20 AM,95.0,41.0,15,29.71,-9999.0,NNW,6.9,-,N/A,,Clear,330,2013-08-17 08:20:00
11:50 AM,96.8,41.0,15,29.71,-9999.0,North,4.6,-,N/A,,Clear,350,2013-08-17 08:50:00
12:20 PM,95.0,39.2,14,29.71,-9999.0,Variable,4.6,-,N/A,,Clear,0,2013-08-17 09:20:00
12:50 PM,96.8,37.4,13,29.71,-9999.0,Variable,4.6,-,N/A,,Clear,0,2013-08-17 09:50:00
1:20 PM,98.6,35.6,11,29.71,-9999.0,Variable,4.6,21.9,N/A,,Clear,0,2013-08-17 10:20:00
1:50 PM,98.6,35.6,11,29.68,-9999.0,Variable,4.6,-,N/A,,Clear,0,2013-08-17 10:50:00
2:20 PM,98.6,35.6,11,29.68,-9999.0,Variable,8.1,-,N/A,,Clear,0,2013-08-17 11:20:00
2:50 PM,98.6,35.6,11,29.68,-9999.0,WNW,13.8,-,N/A,,Clear,290,2013-08-17 11:50:00
3:00 PM,99,35,5,29.53,6,WNW,13.8,,,,,290,2013-08-17 12:00:00
3:20 PM,98.6,35.6,11,29.68,-9999.0,SW,8.1,-,N/A,,Clear,230,2013-08-17 12:20:00
3:50 PM,98.6,37.4,12,29.68,-9999.0,WSW,15.0,-,N/A,,Clear,250,2013-08-17 12:50:00
4:20 PM,96.8,37.4,13,29.68,-9999.0,WNW,15.0,-,N/A,,Clear,290,2013-08-17 13:20:00
4:50 PM,96.8,39.2,14,29.68,-9999.0,WSW,10.4,-,N/A,,Clear,240,2013-08-17 13:50:00
5:20 PM,96.8,41.0,15,29.68,-9999.0,West,12.7,-,N/A,,Clear,260,2013-08-17 14:20:00
5:50 PM,95.0,39.2,14,29.68,-9999.0,West,13.8,-,N/A,,Clear,260,2013-08-17 14:50:00
6:20 PM,93.2,39.2,15,29.68,-9999.0,West,11.5,-,N/A,,Clear,260,2013-08-17 15:20:00
6:50 PM,91.4,39.2,16,29.68,-9999.0,West,11.5,-,N/A,,Clear,260,2013-08-17 15:50:00
7:20 PM,87.8,39.2,18,29.68,-9999.0,West,9.2,-,N/A,,Clear,260,2013-08-17 16:20:00
7:50 PM,86.0,42.8,22,29.71,-9999.0,WSW,9.2,-,N/A,,Clear,250,2013-08-17 16:50:00
8:20 PM,84.2,50.0,30,29.71,-9999.0,WSW,6.9,-,N/A,,Clear,250,2013-08-17 17:20:00
8:50 PM,82.4,55.4,39,29.71,-9999.0,WSW,6.9,-,N/A,,Clear,250,2013-08-17 17:50:00
9:00 PM,82,56,30,29.56,6,WSW,6.9,,,,,250,2013-08-17 18:00:00
9:20 PM,82.4,59.0,45,29.71,-9999.0,West,8.1,-,N/A,,Clear,260,2013-08-17 18:20:00
9:50 PM,80.6,59.0,48,29.71,-9999.0,Variable,2.3,-,N/A,,Clear,0,2013-08-17 18:50:00
10:20 PM,80.6,55.4,42,29.71,-9999.0,West,9.2,-,N/A,,Clear,260,2013-08-17 19:20:00
10:50 PM,80.6,53.6,39,29.71,-9999.0,West,9.2,-,N/A,,Clear,270,2013-08-17 19:50:00
11:20 PM,80.6,53.6,39,29.71,-9999.0,Calm,Calm,-,N/A,,Clear,0,2013-08-17 20:20:00
11:50 PM,80.6,55.4,42,29.71,-9999.0,WNW,8.1,-,N/A,,Clear,290,2013-08-17 20:50:00